Location: Newark
(46.7636°N, 1.8358°W)
Time: 04:31:05
(UTC+00:00)

SR - All Passes

Search period start: 18 October 2019 00:00
Search period end: 28 October 2019 00:00
Orbit: 575 x 881 km, 66.7° (Epoch: 17 October)

Date Brightness Start Highest point End Pass type
(mag) Time Alt. Az. Time Alt. Az. Time Alt. Az.
18 Oct - 00:07:14 10° WSW 00:11:54 35° NW 00:16:59 10° NNE visible
18 Oct - 01:53:28 10° NW 01:55:48 13° NNW 01:58:11 10° N visible
18 Oct - 05:20:54 10° NNW 05:25:09 20° NNE 05:29:26 10° E visible
18 Oct - 07:02:25 10° NNW 07:08:19 70° NE 07:14:13 10° SE daylight
18 Oct - 08:45:22 10° WNW 08:49:58 24° WSW 08:54:32 10° SSW daylight
18 Oct - 21:36:26 10° SSE 21:40:21 24° ESE 21:44:33 10° NE night (unlit)
18 Oct - 23:17:00 10° SW 23:21:58 58° NW 23:27:27 10° NNE night (unlit)
19 Oct - 01:01:56 10° WNW 01:05:22 17° NNW 01:08:55 10° NNE visible
19 Oct - 04:31:34 10° N 04:34:46 15° NNE 04:38:01 10° ENE visible
19 Oct - 06:12:52 10° NNW 06:18:27 43° NE 06:24:04 10° ESE daylight
19 Oct - 07:55:05 10° NW 08:00:37 42° WSW 08:06:07 10° S daylight
19 Oct - 20:49:24 10° ESE 20:51:14 12° E 20:53:07 10° E night (unlit)
19 Oct - 22:27:16 10° SSW 22:32:16 80° ESE 22:37:46 10° NE night (unlit)
20 Oct - 00:10:52 10° W 00:15:04 24° NW 00:19:34 10° NNE visible
20 Oct - 01:58:15 10° NNW 01:59:22 11° N 02:00:29 10° N visible
20 Oct - 03:42:20 10° N 03:44:16 12° NNE 03:46:13 10° NE visible
20 Oct - 05:23:24 10° NNW 05:28:24 28° NE 05:33:27 10° E visible
20 Oct - 07:05:12 10° NW 07:11:07 74° WSW 07:16:59 10° SSE daylight
20 Oct - 08:49:34 10° WNW 08:52:17 13° WSW 08:54:59 10° SW daylight
20 Oct - 21:38:05 10° S 21:42:46 42° ESE 21:47:53 10° NE night (unlit)
20 Oct - 23:20:13 10° WSW 23:24:58 36° NW 23:30:07 10° NNE night (unlit)
21 Oct - 01:06:19 10° NW 01:08:49 13° NNW 01:11:23 10° N visible
21 Oct - 04:34:01 10° NNW 04:38:11 20° NNE 04:42:25 10° ENE visible
21 Oct - 06:15:31 10° NNW 06:21:24 67° NE 06:27:17 10° SE daylight
21 Oct - 07:58:23 10° NW 08:03:06 25° WSW 08:07:47 10° SSW daylight
21 Oct - 20:49:38 10° SSE 20:53:28 23° ESE 20:57:35 10° ENE night (unlit)
21 Oct - 22:30:02 10° SW 22:35:03 61° NW 22:40:34 10° NNE night (unlit)
22 Oct - 00:14:51 10° WNW 00:18:23 17° NNW 00:22:05 10° NNE visible
22 Oct - 03:44:41 10° N 03:47:49 14° NNE 03:50:58 10° NE visible
22 Oct - 05:25:59 10° NNW 05:31:32 41° NE 05:37:06 10° ESE visible
22 Oct - 07:08:09 10° NW 07:13:45 45° WSW 07:19:17 10° S daylight
22 Oct - 20:02:53 10° ESE 20:04:22 11° E 20:05:54 10° E night (unlit)
22 Oct - 21:40:20 10° SSW 21:45:21 76° ESE 21:50:53 10° NE night (unlit)
22 Oct - 23:23:48 10° W 23:28:07 25° NW 23:32:42 10° NNE night (unlit)
23 Oct - 01:11:02 10° NNW 01:12:23 11° NNW 01:13:45 10° N visible
23 Oct - 02:55:25 10° N 02:57:17 11° NNE 02:59:09 10° NNE visible
23 Oct - 04:36:31 10° NNW 04:41:28 27° NE 04:46:28 10° E visible
23 Oct - 06:18:17 10° NW 06:24:13 78° WSW 06:30:06 10° SSE daylight
23 Oct - 08:02:27 10° WNW 08:05:26 14° WSW 08:08:24 10° SW daylight
23 Oct - 20:51:13 10° S 20:55:52 40° ESE 21:00:58 10° NE night (unlit)
23 Oct - 22:33:13 10° WSW 22:38:01 38° NW 22:43:15 10° NNE night (unlit)
24 Oct - 00:19:11 10° NW 00:21:50 13° NNW 00:24:33 10° N visible
24 Oct - 03:47:07 10° NNW 03:51:14 19° NNE 03:55:23 10° ENE visible
24 Oct - 05:28:37 10° NNW 05:34:30 64° NE 05:40:22 10° SE visible
24 Oct - 07:11:25 10° NW 07:16:15 26° WSW 07:21:01 10° SSW daylight
24 Oct - 20:02:50 10° SSE 20:06:36 21° ESE 20:10:37 10° ENE night (unlit)
24 Oct - 21:43:04 10° SW 21:48:07 64° NW 21:53:42 10° NNE night (unlit)
24 Oct - 23:27:46 10° WNW 23:31:24 18° NNW 23:35:14 10° NNE night (unlit)
25 Oct - 02:57:47 10° N 03:00:50 14° NNE 03:03:54 10° NE visible
25 Oct - 04:39:05 10° NNW 04:44:36 40° NE 04:50:08 10° ESE visible
25 Oct - 06:21:13 10° NW 06:26:53 47° WSW 06:32:27 10° S daylight
25 Oct - 19:16:30 10° ESE 19:17:31 11° E 19:18:32 10° E night (unlit)
25 Oct - 20:53:25 10° SSW 20:58:27 72° ESE 21:03:59 10° NE night (unlit)
25 Oct - 22:36:46 10° W 22:41:09 26° NW 22:45:51 10° NNE night (unlit)
26 Oct - 00:23:50 10° NNW 00:25:23 11° NNW 00:26:57 10° N visible
26 Oct - 02:08:32 10° N 02:10:18 11° NNE 02:12:04 10° NNE visible
26 Oct - 03:49:37 10° NNW 03:54:32 26° NE 03:59:28 10° E visible
26 Oct - 05:31:22 10° NW 05:37:20 82° WSW 05:43:13 10° SSE visible
26 Oct - 07:15:21 10° WNW 07:18:35 15° WSW 07:21:47 10° SW daylight
26 Oct - 20:04:20 10° S 20:08:59 38° ESE 20:14:02 10° NE night (unlit)
26 Oct - 21:46:12 10° WSW 21:51:05 40° NW 21:56:23 10° NNE night (unlit)
26 Oct - 23:32:04 10° NW 23:34:51 14° NNW 23:37:43 10° N night (unlit)
27 Oct - 03:00:14 10° NNW 03:04:16 19° NNE 03:08:20 10° ENE visible
27 Oct - 04:41:43 10° NNW 04:47:36 61° NE 04:53:26 10° SE visible
27 Oct - 06:24:27 10° NW 06:29:23 28° WSW 06:34:15 10° SSW daylight
27 Oct - 19:16:03 10° SSE 19:19:44 20° ESE 19:23:38 10° ENE night (unlit)
27 Oct - 20:56:06 10° SW 21:01:12 68° NW 21:06:48 10° NNE night (unlit)
27 Oct - 22:40:41 10° WNW 22:44:26 19° NNW 22:48:23 10° NNE night (unlit)
